Retour au catalogue

MEASAT 3D

ActifCommunicationsGEO
NORAD 52904·PAYLOAD·🇲🇾 Malaysia

Lancé Jun 22, 2022 depuis Guiana Space Centre

Loading…

TLE

FraisSource: Space-Track

Époque: Sep 14, 2026, 12:31 UTC

1 52904U 22067B   26257.52200868 -.00000250  00000-0  00000-0 0  9998
2 52904   0.0303 347.9744 0001376 249.9941  34.9618  1.00272808 15545

Suivez MEASAT 3D en temps réel avec AllMySat

Download on the App Store